Regional Weather Roundup
Issued by NWS

Home | Current Version | Previous Version | Text Only | Print | Product List | Glossary Off
Versions: 1 2 3 4 5 6 7 8 9 10 11 12 13 14 15 16 17 18 19 20 21 22 23 24 25 26 27 28 29 30 31 32 33 34 35 36 37 38 39 40 41 42 43 44 45 46 47 48 49 50

187
ASUS43 KTOP 300459
RWRKS

WEATHER ROUNDUP FOR KANSAS
NATIONAL WEATHER SERVICE GOODLAND KS
1200 AM CDT TUE MAY 30 2017

NOTE:  "FAIR" INDICATES FEW OR NO CLOUDS BELOW 12,000 FEET WITH NO
SIGNIFICANT WEATHER AND/OR OBSTRUCTIONS TO VISIBILITY.

KSZ001>006-013>018-027>032-041>047-300600-
NORTHWEST KANSAS

CITY           SKY/WX    TMP DP  RH WIND       PRES   REMARKS
GOODLAND       CLOUDY    52  47  83 SW8       30.17R
HAYS           MOCLDY    61  51  70 CALM      30.10R
HILL CITY      PTCLDY    55  51  86 SW3       30.11R
RUSSELL        CLEAR     62  50  64 S5        30.08R
$$

KSZ061>065-074>080-084>089-300600-
SOUTHWEST KANSAS

CITY           SKY/WX    TMP DP  RH WIND       PRES   REMARKS
DODGE CITY     CLOUDY    65  51  60 SW21G43   30.18R THUNDER
ELKHART          N/A     57  46  66 MISG        N/A
GARDEN CITY    LGT RAIN  58  55  90 W18G28    30.22R
GREAT BEND     CLOUDY    61  51  70 SW5       30.09S
LIBERAL        CLOUDY    60  52  74 NE6       30.19R
$$

KSZ066>073-081>083-090>101-300600-
SOUTHEAST KANSAS

CITY           SKY/WX    TMP DP  RH WIND       PRES   REMARKS
CHANUTE        CLEAR     59  53  80 NW3       30.06R
COFFEYVILLE    CLEAR     63  58  83 CALM      30.05R
HUTCHINSON     PTCLDY    56  51  84 N3        30.07S
MEDICINE LODGE   N/A     65  50  58 CALM      30.08R
NEWTON         PTCLDY    68  47  46 N3        30.08S
PARSONS        CLEAR     59  54  83 CALM      30.07R
WICHITA INTL   CLOUDY    69  50  50 NE3       30.06S
WICHITA JABRA  CLOUDY    63  49  60 CALM      30.07S
WINFIELD       CLEAR     67  52  58 NE5       30.07F
$$

KSZ007>012-019>026-033>040-048>060-102>105-300600-
NORTHEAST KANSAS

CITY           SKY/WX    TMP DP  RH WIND       PRES   REMARKS
CONCORDIA      CLEAR     59  44  57 CALM      30.07S
EMPORIA        PTCLDY    62  53  72 W3        30.06R
LAWRENCE       CLEAR     59  51  75 W3        30.05R
MANHATTAN      CLEAR     57  49  74 CALM      30.07R
OLATHE IND     CLEAR     58  49  72 N8        30.06R
OLATHE EXE     CLEAR     66  47  50 N6        30.05R
SALINA         CLEAR     63  51  65 CALM      30.07S
TOPEKA BILLARD CLEAR     63  49  60 SE3       30.05R
TOPEKA FORBES  CLEAR     66  48  52 NE5       30.06R
$$




USA.gov is the U.S. government's official web portal to all federal, state and local government web resources and services.